TimePST,TemperatureF,Dew PointF,Humidity,Sea Level PressureIn,VisibilityMPH,Wind Direction,Wind SpeedMPH,Gust SpeedMPH,PrecipitationIn,Events,Conditions,WindDirDegrees,DateUTC
12:53 AM,46.0,30.9,56,30.08,10.0,ENE,4.6,-,N/A,,Clear,70,2014-01-27 08:53:00
1:53 AM,48.0,32.0,54,30.07,10.0,Calm,Calm,-,N/A,,Clear,0,2014-01-27 09:53:00
2:53 AM,46.9,32.0,56,30.09,10.0,Calm,Calm,-,N/A,,Clear,0,2014-01-27 10:53:00
3:53 AM,44.1,35.1,71,30.11,10.0,WNW,4.6,-,N/A,,Clear,290,2014-01-27 11:53:00
4:53 AM,39.0,32.0,76,30.10,10.0,Calm,Calm,-,N/A,,Clear,0,2014-01-27 12:53:00
5:53 AM,42.1,32.0,67,30.10,10.0,Calm,Calm,-,N/A,,Clear,0,2014-01-27 13:53:00
6:53 AM,44.1,32.0,63,30.11,10.0,South,3.5,-,N/A,,Clear,180,2014-01-27 14:53:00
7:53 AM,41.0,34.0,76,30.15,10.0,Calm,Calm,-,N/A,,Clear,0,2014-01-27 15:53:00
8:53 AM,45.0,37.0,74,30.17,10.0,Calm,Calm,-,N/A,,Clear,0,2014-01-27 16:53:00
9:53 AM,51.1,33.1,50,30.19,10.0,ESE,4.6,-,N/A,,Clear,110,2014-01-27 17:53:00
10:53 AM,55.9,30.9,39,30.18,10.0,SE,8.1,-,N/A,,Clear,140,2014-01-27 18:53:00
11:53 AM,57.9,33.1,39,30.18,10.0,Variable,3.5,-,N/A,,Clear,0,2014-01-27 19:53:00
12:53 PM,60.1,32.0,35,30.16,10.0,Calm,Calm,-,N/A,,Clear,0,2014-01-27 20:53:00
1:53 PM,63.0,30.0,29,30.13,10.0,Calm,Calm,-,N/A,,Clear,0,2014-01-27 21:53:00
2:53 PM,61.0,35.1,38,30.13,10.0,West,4.6,-,N/A,,Clear,280,2014-01-27 22:53:00
3:53 PM,59.0,37.9,46,30.12,10.0,Calm,Calm,-,N/A,,Clear,0,2014-01-27 23:53:00
4:53 PM,57.9,37.9,47,30.13,10.0,Calm,Calm,-,N/A,,Clear,0,2014-01-28 00:53:00
5:53 PM,55.9,37.9,51,30.14,10.0,Calm,Calm,-,N/A,,Clear,0,2014-01-28 01:53:00
6:53 PM,55.9,36.0,47,30.14,10.0,Calm,Calm,-,N/A,,Scattered Clouds,0,2014-01-28 02:53:00
7:53 PM,54.0,37.0,53,30.15,10.0,East,3.5,-,N/A,,Overcast,90,2014-01-28 03:53:00
8:53 PM,54.0,37.9,55,30.17,10.0,Calm,Calm,-,N/A,,Overcast,0,2014-01-28 04:53:00
9:53 PM,53.1,37.0,55,30.18,10.0,Calm,Calm,-,N/A,,Partly Cloudy,0,2014-01-28 05:53:00
10:53 PM,54.0,36.0,51,30.17,10.0,ENE,5.8,-,N/A,,Partly Cloudy,70,2014-01-28 06:53:00
11:53 PM,53.1,37.0,55,30.19,10.0,South,3.5,-,N/A,,Partly Cloudy,180,2014-01-28 07:53:00